Content
SEND FEEDBACK

Daily
Averages
Monthly
Summary
Canada

MONTREAL, QUEBEC


Home > North America > Canada > Quebec
Elevation: 118 feet     Latitude: 45 28N     Longitude: 073 45W

WEATHER
 
SELECT A DAY
Number of Records: 202,545;   Date Range: 1/1/95 - 11/24/14
 
SHARE

PRINT THIS DATA

[ ← Previous Day ]
WEATHER ALMANAC - MARCH 29, 2014
[ Next Day → ]
[ °C ]   °F
Weather ElementAverageHighLow
Temperature35.1 °F37.4 °F (1:00 am)33.8 °F (10:00 am)
Dewpoint26.9 °F33 °F (2:00 am)23 °F (1:00 pm)
Humidity71.1 %81 % (1:00 am)53 % (2:00 pm)
Barometer30.25 in30.35 in (11:00 am)30.11 in (1:00 am)
Wind Speed11.8 mph23 mph (9:00 pm)
Wind Gust23 mph (10:00 pm)
Weather ElementAverage
Visibility14.6 mi
Wind DirectionSE (138.1 °)

Weather ElementTotal
Precipitation---
Heating Degree Days29.4 (Base 65)
Averaged from 27 records on March 29, 2014
WEATHER CONDITIONS BREAKOUT
WIND DIRECTION BREAKOUT
WEATHER BY HOUR - MARCH 29, 2014
[ °C ]   °F
Local TimeTemperatureDewpointHumidityBarometerVisibilityWind DirectionWind SpeedGust SpeedPrecipitationEventsConditions
1:00 AM37.4 °F32.0 °F81 %30.11 in15.0 miWNW (290°)6.9 mphMostly Cloudy
2:00 AM37.0 °F33.0 °F79 %30.15 in15.0 miWest (270°)8.1 mphPartly Cloudy
2:00 AM37.4 °F32.0 °F81 %30.14 in15.0 miWest (280°)8.1 mphMostly Cloudy
3:00 AM37.4 °F32.0 °F81 %30.16 in15.0 miWNW (290°)6.9 mphMostly Cloudy
4:00 AM37.4 °F30.2 °F75 %30.19 in15.0 miNW (310°)9.2 mphMostly Cloudy
5:00 AM35.6 °F30.2 °F81 %30.22 in15.0 miWNW (290°)4.6 mphMostly Cloudy
6:00 AM35.6 °F30.2 °F81 %30.26 in15.0 miNNW (330°)3.5 mphOvercast
7:00 AM35.6 °F30.2 °F81 %30.29 in15.0 miNW (310°)4.6 mphOvercast
8:00 AM35.0 °F30.0 °F75 %30.32 in12.0 miNorth (350°)5.8 mphOvercast
8:00 AM35.6 °F30.2 °F81 %30.32 in12.0 miNorth (350°)4.6 mphOvercast
9:00 AM35.6 °F26.6 °F70 %30.33 in12.0 miENE (60°)8.1 mphOvercast
10:00 AM33.8 °F26.6 °F75 %30.34 in15.0 miNE (50°)10.4 mphOvercast
11:00 AM33.8 °F24.8 °F70 %30.35 in15.0 miENE (60°)13.8 mphOvercast
12:00 PM33.8 °F24.8 °F70 %30.33 in15.0 miENE (60°)13.8 mphOvercast
1:00 PM33.8 °F23.0 °F65 %30.32 in15.0 miNE (50°)12.7 mphOvercast
2:00 PM35.0 °F24.0 °F53 %30.33 in15.0 miNNE (30°)11.5 mphOvercast
2:00 PM33.8 °F24.8 °F70 %30.33 in15.0 miNNE (30°)10.4 mphOvercast
3:00 PM35.6 °F24.8 °F65 %30.31 in15.0 miNNE (30°)15.0 mphOvercast
4:00 PM35.6 °F24.8 °F65 %30.27 in15.0 miNE (50°)16.1 mphOvercast
5:00 PM35.6 °F23.0 °F60 %30.27 in15.0 miNNE (30°)16.1 mphOvercast
6:00 PM33.8 °F23.0 °F65 %30.25 in15.0 miNNE (30°)17.3 mphOvercast
7:00 PM33.8 °F23.0 °F65 %30.25 in15.0 miNE (40°)15.0 mphOvercast
8:00 PM34.0 °F24.0 °F55 %30.23 in15.0 miNNE (30°)17.3 mphOvercast
8:00 PM33.8 °F24.8 °F70 %30.23 in15.0 miNNE (30°)18.4 mphOvercast
9:00 PM35.6 °F24.8 °F65 %30.21 in15.0 miNE (40°)23.0 mphOvercast
10:00 PM33.8 °F24.8 °F70 %30.19 in15.0 miNNE (20°)15.0 mph23.0 mphOvercast
11:00 PM33.8 °F24.8 °F70 %30.15 in12.0 miNNE (20°)23.0 mphOvercast
Hourly data recorded from CYUL, located miles away from Montreal, Quebec







STORIES FROM OUR PARTNERS